Location: Beverley
(50.2667°N, 107.9667°W)
Time: 08:41:38
(UTC+00:00)

EO-79 - Pass Details

Date: 30 June 2022
Orbit: 588 x 603 km, 98.0° (Epoch: 09 August)

Event Time Altitude Azimuth Distance (km) Brightness Sun altitude
Rises 08:49:09 0° 16° (NNE) 2,855 ? -13.7°
Reaches altitude 10° 08:51:21 10° 20° (NNE) 1,950 ? -13.6°
Maximum altitude 08:55:33 62° 101° (E) 681 ? -13.3°
Enters shadow 08:58:37 18° 180° (S) 1,497 ? -13.1°
